Regional Weather Roundup
Issued by NWS

Home | Current Version | Previous Version | Text Only | Print | Product List | Glossary Off
Versions: 1 2 3 4 5 6 7 8 9 10 11 12 13 14 15 16 17 18 19 20 21 22 23 24 25 26 27 28 29 30 31 32 33 34 35 36 37 38 39 40 41 42 43 44 45 46 47 48 49 50

000
ASUS45 KABQ 200710
RWRNM
NEW MEXICO REGIONAL WEATHER ROUNDUP
NATIONAL WEATHER SERVICE ALBUQUERQUE NM
100 AM MDT FRI APR 20 2018

NOTE: "FAIR" MEANS FEW OR NO CLOUDS BELOW 12,000 FEET AGL WITH NO
       SIGNIFICANT WEATHER OR OBSTRUCTIONS TO VISION.

      THIS PRODUCT IS RELEASED AS TWO VERSIONS.  ONE VERSION NEAR
      THE TOP OF THE HOUR CONTAINING PRELIMINARY DATA FROM ALBUQUERQUE
      AND OTHER STATIONS.  A FINAL VERSION WITH ADDITIONAL DATA IS
      ISSUED ABOUT 10 MINUTES AFTER THE HOUR.

NMZ501-503-504-510>518-200800-
NORTHWEST PLATEAU/NORTHCENTRAL MOUNTAINS

CITY           SKY/WX    TMP DP  RH WIND       PRES   REMARKS
FARMINGTON     FAIR      53   9  17 W21G28    29.82R
LOS ALAMOS     FAIR      48  22  35 S16G25    30.05F
SANTA FE       FAIR      52  24  33 SE39G54   29.97F
TAOS           FAIR      48  23  37 S17G24    30.03F
ANGEL FIRE     FAIR      39  20  46 S21G26    30.13F WCI  29

$$
NMZ402-403-502-505>509-200800-
WESTCENTRAL MOUNTAINS/SOUTHWEST MOUNTAINS

CITY           SKY/WX    TMP DP  RH WIND       PRES   REMARKS
GALLUP         FAIR      45  11  25 W17       29.89R
GRANTS         FAIR      57  27  31 SE15G30   29.86F
SILVER CITY    FAIR      53   2  12 S10       29.94S

$$
NMZ407-409-411-412-200800-
SOUTHERN DESERTS

CITY           SKY/WX    TMP DP  RH WIND       PRES   REMARKS
DEMING         FAIR      67  36  31 S7        29.91R
LAS CRUCES     FAIR      64  36  35 SE15      29.93F
HOLLOMAN AFB   FAIR      68  36  31 SE25G35   29.92S
ALAMOGORDO     FAIR      73  37  27 S24G38    29.89F
T OR C         FAIR      66  36  32 S9        29.88F

$$
NMZ519>523-200800-
CENTRAL VALLEYS/CENTRAL HIGHLANDS

CITY           SKY/WX    TMP DP  RH WIND       PRES   REMARKS
ALBUQUERQUE    CLOUDY    59  28  30 E28G35    29.88R
DOUBLE EAGLE   FAIR      57  28  32 SE17      29.92S
MORIARTY ARPT  FAIR      53  32  45 SE30G40   30.00F
CLINES CORNERS FAIR      45  24  43 SE26G44   30.07F
BELEN          FAIR      59  27  29 SE20G30   29.87F
SOCORRO        FAIR      62  31  31 S15       29.85F

$$
NMZ524>526-539-540-200800-
SOUTHCENTRAL MOUNTAINS

CITY           SKY/WX    TMP DP  RH WIND       PRES   REMARKS
RUIDOSO        CLOUDY    48  34  57 SE18      30.13F

$$
NMZ527>531-200800-
NORTHEAST HIGHLANDS/NORTHEAST PLAINS

CITY           SKY/WX    TMP DP  RH WIND       PRES   REMARKS
LAS VEGAS      FAIR      46  18  32 S20       30.12F
RATON          FAIR      46  19  34 S23G31    30.09F
CLAYTON        FAIR      43  24  47 S16       30.15R

$$
NMZ532>537-200800-
EASTCENTRAL PLAINS

CITY           SKY/WX    TMP DP  RH WIND       PRES   REMARKS
SANTA ROSA     FAIR      53  20  26 SE18G29   30.07S
TUCUMCARI      CLOUDY    56  25  30 SE21      30.09F
CANNON AFB     CLOUDY    52  26  37 SE18      30.14F
CLOVIS AIRPORT FAIR      50  26  39 SE17G25   30.15

$$
NMZ028-029-538-200800-
SOUTHEAST PLAINS

CITY           SKY/WX    TMP DP  RH WIND       PRES   REMARKS
ROSWELL        MOCLDY    64  32  30 S21       30.05F
ARTESIA        CLOUDY    63  36  36 SE29      30.06R
CARLSBAD       FAIR      60  36  40 SE18G25   30.03F
HOBBS          CLOUDY    59  25  27 SE16      30.12F


$$




USA.gov is the U.S. government's official web portal to all federal, state and local government web resources and services.